| time (UTC) | temp F | wind direction | speed knots | gust knots | rain 1hr in | rain 24hr in | rain mn in | humidity % | barometer mb |
| 20260506231626 | 78 | 169 | 3.5 | 7.8 | 0.00 | 0.00 | 0.00 | 83 | 1013.4 |
| 20260506230119 | 78 | 176 | 4.3 | 7.0 | 0.00 | 0.00 | 0.00 | 84 | 1013.4 |
| 20260506224618 | 78 | 198 | 6.1 | 12.2 | 0.00 | 0.00 | 0.00 | 82 | 1013.3 |
| 20260506223134 | 79 | 184 | 5.2 | 11.3 | 0.00 | 0.00 | 0.00 | 79 | 1013.4 |
| 20260506221624 | 79 | 178 | 5.2 | 12.2 | 0.00 | 0.00 | 0.00 | 79 | 1013.5 |
| 20260506220140 | 79 | 144 | 5.2 | 12.2 | 0.00 | 0.00 | 0.00 | 79 | 1013.8 |
| 20260506214628 | 79 | 142 | 5.2 | 10.4 | 0.00 | 0.00 | 0.00 | 78 | 1014.0 |
| 20260506213130 | 80 | 144 | 4.3 | 11.3 | 0.00 | 0.00 | 0.00 | 73 | 1014.0 |
| 20260506211624 | 81 | 165 | 3.5 | 9.6 | 0.00 | 0.00 | 0.00 | 73 | 1014.1 |
| 20260506210119 | 80 | 220 | 4.3 | 11.3 | 0.00 | 0.00 | 0.00 | 73 | 1014.3 |
| 20260506204635 | 81 | 163 | 5.2 | 9.6 | 0.00 | 0.00 | 0.00 | 75 | 1014.5 |
| 20260506203131 | 81 | 161 | 5.2 | 9.6 | 0.00 | 0.00 | 0.00 | 74 | 1014.5 |
| 20260506201632 | 80 | 184 | 7.0 | 12.2 | 0.00 | 0.00 | 0.00 | 75 | 1014.9 |
| 20260506200151 | 81 | 172 | 7.0 | 11.3 | 0.00 | 0.00 | 0.00 | 73 | 1015.1 |
| 20260506194625 | 83 | 159 | 1.7 | 8.7 | 0.00 | 0.00 | 0.00 | 71 | 1015.5 |
| 20260506193144 | 82 | 163 | 4.3 | 9.6 | 0.00 | 0.00 | 0.00 | 70 | 1015.6 |
| 20260506191637 | 83 | 231 | 2.6 | 12.2 | 0.00 | 0.00 | 0.00 | 70 | 1015.9 |
| 20260506190130 | 83 | 244 | 7.8 | 12.2 | 0.00 | 0.00 | 0.00 | 68 | 1016.0 |
| 20260506184624 | 82 | 215 | 6.1 | 8.7 | 0.00 | 0.00 | 0.00 | 70 | 1016.0 |
| 20260506183121 | 83 | 257 | 5.2 | 10.4 | 0.00 | 0.00 | 0.00 | 72 | 1016.1 |
| 20260506181618 | 81 | 245 | 6.1 | 8.7 | 0.00 | 0.00 | 0.00 | 71 | 1016.1 |
| 20260506180118 | 82 | 218 | 5.2 | 10.4 | 0.00 | 0.00 | 0.00 | 70 | 1016.4 |
| 20260506174655 | 83 | 269 | 6.1 | 9.6 | 0.00 | 0.00 | 0.00 | 70 | 1016.5 |
| 20260506173129 | 81 | 197 | 6.1 | 9.6 | 0.00 | 0.00 | 0.00 | 70 | 1016.5 |
| 20260506171624 | 84 | 178 | 1.7 | 8.7 | 0.00 | 0.00 | 0.00 | 70 | 1016.6 |
| 20260506170139 | 81 | 241 | 4.3 | 9.6 | 0.00 | 0.00 | 0.00 | 74 | 1016.7 |
| 20260506164637 | 80 | 199 | 4.3 | 7.8 | 0.00 | 0.00 | 0.00 | 78 | 1016.6 |
| 20260506163128 | 81 | 223 | 4.3 | 7.0 | 0.00 | 0.00 | 0.00 | 78 | 1016.5 |
| 20260506161627 | 79 | 201 | 3.5 | 6.1 | 0.00 | 0.00 | 0.00 | 82 | 1016.4 |
| 20260506160144 | 79 | 191 | 4.3 | 7.8 | 0.00 | 0.00 | 0.00 | 80 | 1016.2 |
| 20260506154633 | 79 | 219 | 4.3 | 7.8 | 0.00 | 0.00 | 0.00 | 81 | 1016.2 |
| 20260506153131 | 79 | 197 | 4.3 | 8.7 | 0.00 | 0.00 | 0.00 | 81 | 1016.0 |
| 20260506151627 | 78 | 259 | 4.3 | 7.0 | 0.00 | 0.00 | 0.00 | 82 | 1016.0 |
| 20260506150126 | 77 | 214 | 4.3 | 10.4 | 0.00 | 0.00 | 0.00 | 83 | 1015.8 |
| 20260506144621 | 78 | 220 | 4.3 | 10.4 | 0.00 | 0.00 | 0.00 | 82 | 1015.5 |
| 20260506143137 | 77 | 243 | 4.3 | 9.6 | 0.00 | 0.00 | 0.00 | 84 | 1015.5 |
| 20260506141653 | 77 | 163 | 4.3 | 9.6 | 0.00 | 0.00 | 0.00 | 85 | 1015.5 |
| 20260506140127 | 77 | 181 | 7.0 | 11.3 | 0.00 | 0.00 | 0.00 | 83 | 1015.3 |
| 20260506134643 | 77 | 175 | 3.5 | 7.8 | 0.00 | 0.00 | 0.00 | 85 | 1015.1 |
| 20260506133132 | 75 | 234 | 4.3 | 8.7 | 0.00 | 0.00 | 0.00 | 88 | 1015.0 |
| 20260506131630 | 75 | 200 | 5.2 | 8.7 | 0.00 | 0.00 | 0.00 | 90 | 1014.9 |
| 20260506130122 | 74 | 163 | 5.2 | 7.8 | 0.00 | 0.00 | 0.00 | 91 | 1014.6 |
| 20260506124615 | 74 | 176 | 3.5 | 9.6 | 0.00 | 0.00 | 0.00 | 92 | 1014.4 |
| 20260506123132 | 73 | 173 | 4.3 | 8.7 | 0.00 | 0.00 | 0.00 | 93 | 1014.4 |
| 20260506121626 | 73 | 169 | 3.5 | 6.1 | 0.00 | 0.00 | 0.00 | 94 | 1013.9 |
| 20260506120123 | 73 | 196 | 4.3 | 8.7 | 0.00 | 0.00 | 0.00 | 95 | 1013.5 |
| 20260506114637 | 72 | 211 | 2.6 | 5.2 | 0.00 | 0.00 | 0.00 | 96 | 1013.4 |
| 20260506113134 | 72 | 215 | 2.6 | 5.2 | 0.00 | 0.00 | 0.00 | 96 | 1013.3 |
| 20260506111631 | 72 | 184 | 2.6 | 7.0 | 0.00 | 0.00 | 0.00 | 96 | 1012.9 |
| 20260506110129 | 71 | 151 | 1.7 | 6.1 | 0.00 | 0.00 | 0.00 | 96 | 1012.9 |
| 20260506104621 | 71 | 186 | 2.6 | 6.1 | 0.00 | 0.00 | 0.00 | 96 | 1012.9 |
| 20260506103123 | 72 | 189 | 2.6 | 5.2 | 0.00 | 0.00 | 0.00 | 96 | 1012.8 |
| 20260506101635 | 72 | 192 | 2.6 | 5.2 | 0.00 | 0.00 | 0.00 | 96 | 1012.8 |
| 20260506100127 | 72 | 188 | 2.6 | 5.2 | 0.00 | 0.00 | 0.00 | 95 | 1012.7 |
| 20260506094620 | 72 | 193 | 1.7 | 5.2 | 0.00 | 0.00 | 0.00 | 95 | 1012.8 |
| 20260506093135 | 72 | 174 | 2.6 | 5.2 | 0.00 | 0.00 | 0.00 | 95 | 1012.8 |
| 20260506091631 | 72 | 218 | 1.7 | 6.1 | 0.00 | 0.00 | 0.00 | 95 | 1012.8 |
| 20260506090143 | 72 | 164 | 2.6 | 5.2 | 0.00 | 0.00 | 0.00 | 95 | 1012.9 |
| 20260506084625 | 72 | 185 | 1.7 | 4.3 | 0.00 | 0.00 | 0.00 | 95 | 1012.9 |
| 20260506083119 | 72 | 202 | 2.6 | 5.2 | 0.00 | 0.00 | 0.00 | 95 | 1013.1 |
| 20260506081656 | 72 | 188 | 2.6 | 6.1 | 0.00 | 0.00 | 0.00 | 95 | 1013.3 |
| 20260506080132 | 72 | 223 | 2.6 | 6.1 | 0.00 | 0.00 | 0.00 | 95 | 1013.2 |
| 20260506073122 | 72 | 194 | 2.6 | 4.3 | 0.00 | 0.00 | 0.00 | 95 | 1013.3 |
| 20260506071634 | 72 | 194 | 1.7 | 4.3 | 0.00 | 0.00 | 0.00 | 94 | 1013.3 |
| 20260506070130 | 72 | 185 | 2.6 | 6.1 | 0.00 | 0.00 | 0.00 | 95 | 1013.4 |
| 20260506061629 | 72 | 183 | 2.6 | 5.2 | 0.00 | 0.00 | 0.00 | 95 | 1013.5 |
| 20260506060126 | 72 | 209 | 3.5 | 5.2 | 0.00 | 0.00 | 0.00 | 95 | 1013.8 |
| 20260506050130 | 72 | 192 | 2.6 | 5.2 | 0.00 | 0.00 | 0.00 | 95 | 1014.0 |
| 20260506044641 | 72 | 187 | 2.6 | 6.1 | 0.00 | 0.00 | 0.00 | 95 | 1014.2 |
| 20260506043135 | 72 | 167 | 1.7 | 5.2 | 0.00 | 0.00 | 0.00 | 95 | 1014.5 |
| 20260506041652 | 72 | 179 | 2.6 | 4.3 | 0.00 | 0.00 | 0.00 | 95 | 1014.7 |
| 20260506040125 | 72 | 178 | 2.6 | 5.2 | 0.00 | 0.00 | 0.00 | 94 | 1014.6 |
| 20260506034623 | 72 | 191 | 0.9 | 6.1 | 0.00 | 0.00 | 0.00 | 94 | 1014.8 |
| 20260506033155 | 73 | 188 | 2.6 | 7.0 | 0.00 | 0.00 | 0.00 | 94 | 1014.7 |
| 20260506031633 | 73 | 169 | 3.5 | 6.1 | 0.00 | 0.00 | 0.00 | 93 | 1014.6 |
| 20260506030127 | 73 | 184 | 3.5 | 5.2 | 0.00 | 0.00 | 0.00 | 93 | 1014.6 |
| 20260506024627 | 73 | 186 | 3.5 | 5.2 | 0.00 | 0.00 | 0.00 | 92 | 1014.6 |
| 20260506023120 | 73 | 204 | 2.6 | 6.1 | 0.00 | 0.00 | 0.00 | 92 | 1014.5 |
| 20260506021621 | 73 | 186 | 4.3 | 7.8 | 0.00 | 0.00 | 0.00 | 91 | 1014.3 |
| 20260506020133 | 73 | 181 | 2.6 | 5.2 | 0.00 | 0.00 | 0.00 | 91 | 1014.5 |
| 20260506014626 | 73 | 180 | 2.6 | 5.2 | 0.00 | 0.00 | 0.00 | 90 | 1014.5 |
| 20260506013119 | 73 | 181 | 3.5 | 6.1 | 0.00 | 0.00 | 0.00 | 90 | 1014.2 |
| 20260506011636 | 73 | 194 | 1.7 | 6.1 | 0.00 | 0.00 | 0.00 | 89 | 1014.1 |
| 20260506010132 | 73 | 182 | 2.6 | 5.2 | 0.00 | 0.00 | 0.00 | 89 | 1014.0 |
| 20260506004626 | 73 | 178 | 3.5 | 9.6 | 0.00 | 0.00 | 0.00 | 89 | 1013.9 |
| 20260506003122 | 73 | 190 | 4.3 | 8.7 | 0.00 | 0.00 | 0.00 | 88 | 1013.9 |
| 20260506001623 | 73 | 171 | 4.3 | 9.6 | 0.00 | 0.00 | 0.00 | 87 | 1013.7 |
| 20260506000120 | 74 | 221 | 4.3 | 7.8 | 0.00 | 0.00 | 0.00 | 86 | 1013.5 |
| 20260505234637 | 74 | 163 | 4.3 | 7.8 | 0.00 | 0.00 | 0.00 | 83 | 1013.9 |
| 20260505233155 | 75 | 166 | 5.2 | 8.7 | 0.00 | 0.00 | 0.00 | 79 | 1013.9 |